Date,TemperatureHighF,TemperatureAvgF,TemperatureLowF,DewpointHighF,DewpointAvgF,DewpointLowF,HumidityHigh,HumidityAvg,HumidityLow,PressureMaxIn,PressureMinIn,WindSpeedMaxMPH,WindSpeedAvgMPH,GustSpeedMaxMPH,PrecipitationSumIn
2013-11-1,72.7,62.7,55.4,38.2,30.5,22.5,47,31,16,30.14,29.99,10,3,13,0.00
2013-11-2,70.5,61.4,53.0,34.8,29.1,23.7,46,30,22,30.00,29.82,7,2,0,0.00
2013-11-3,61.3,52.1,44.3,40.2,35.5,29.5,65,53,44,29.90,29.82,7,2,0,0.00
2013-11-4,57.7,49.4,42.1,34.3,28.6,16.2,68,46,27,30.03,29.80,14,3,16,0.00
2013-11-5,58.8,50.4,43.7,31.8,28.3,18.3,51,42,35,30.25,30.02,8,2,0,0.00
2013-11-6,68.5,58.2,50.1,30.4,26.4,18.9,46,30,20,30.27,30.18,16,3,17,0.00
2013-11-7,71.1,63.6,56.9,26.6,22.4,18.4,28,21,16,30.18,30.02,8,2,0,0.00
2013-11-8,71.3,61.9,56.9,34.3,24.1,17.0,41,24,16,30.02,29.91,7,2,0,0.00
2013-11-9,69.1,61.2,54.7,30.6,27.6,24.0,34,28,21,30.00,29.93,9,2,0,0.00
2013-11-10,71.4,64.1,58.7,27.4,20.7,13.9,29,19,12,30.06,30.00,9,2,13,0.00
2013-11-11,73.2,64.4,56.7,27.5,19.0,10.0,22,17,9,30.14,30.03,11,3,0,0.00
2013-11-12,71.9,63.9,57.3,30.1,23.6,17.0,29,22,15,30.21,30.10,9,2,13,0.00
2013-11-13,71.3,62.8,55.6,36.4,33.0,27.1,44,33,26,30.16,30.02,9,2,12,0.00
2013-11-14,63.2,57.1,53.2,34.7,29.7,26.1,48,36,29,30.06,30.00,9,2,0,0.00
2013-11-15,58.6,51.7,46.5,39.2,36.4,34.5,65,56,45,29.75,29.66,7,2,0,0.00
2013-11-16,56.6,48.5,44.4,39.2,36.2,34.0,71,62,51,29.91,29.73,7,2,0,0.00
2013-11-17,57.4,50.1,44.5,39.7,36.8,35.0,71,60,46,30.08,29.90,8,2,0,0.00
2013-11-18,57.6,50.8,46.5,39.9,37.3,35.4,72,60,46,30.13,30.03,12,2,14,0.00
2013-11-19,56.5,49.2,45.0,43.7,40.0,36.7,95,71,54,30.07,29.95,7,1,0,0.15
2013-11-20,52.1,46.0,42.4,49.3,44.2,40.5,97,94,85,29.97,29.83,12,2,16,0.85
2013-11-21,54.0,45.6,41.0,44.8,33.5,21.8,91,65,41,29.95,29.84,26,5,32,0.00
2013-11-22,56.2,46.4,39.9,35.1,20.5,11.9,75,37,24,30.01,29.92,24,8,33,0.00
2013-11-23,51.9,45.4,40.5,37.2,33.3,20.4,78,63,38,30.12,29.97,6,1,0,0.00
2013-11-24,54.1,46.3,40.8,38.9,36.1,33.1,77,68,51,30.25,30.11,9,2,0,0.00
2013-11-25,57.8,49.8,43.6,40.3,36.9,34.0,71,61,50,30.32,30.25,9,2,0,0.00
2013-11-26,62.2,54.7,47.9,39.4,31.4,24.1,66,42,29,30.26,30.05,14,3,17,0.00
2013-11-27,60.9,55.3,51.9,33.4,29.2,24.7,43,37,30,30.05,29.84,8,2,0,0.00
2013-11-28,61.2,53.5,49.1,36.0,33.2,29.4,57,46,36,30.05,29.86,9,2,0,0.00
2013-11-29,61.2,53.4,48.1,37.9,34.7,30.8,58,49,38,30.20,30.05,9,4,0,0.00
2013-11-30,61.6,53.3,48.9,38.8,35.5,31.1,66,51,39,30.24,30.15,11,2,15,0.00